Flag for Poland Weather past 2 weeks in Zielona Góra, Poland

Now
66 °F

Sunny.


Feels Like: 66 °F
Forecast: 55 / 73 °F
Wind: 2 mph from East

Location: Zielona Gora

Current Time: Sep 17, 2014 at 8:16:05 PM

Latest Report: Sep 17, 2014 at 7:00 PM


Visibility: 16 mi

Pressure: 30.05 "Hg

Humidity: 60%

Dew point: 52 °F

Location of Zielona GóraLocation

Historic Weather in Zielona Góra — Graph

°F

Zielona Góra temperature yesterday

Maximum temperature yesterday: 72 °F (at 4:00 PM)
Minimum temperature yesterday: 57 °F (at 8:00 AM)
Average temperature yesterday: 64 °F

Past Weeks' High & Low Weather Summary

 TemperatureHumidityPressure
High79 °F (Sep 7, 4:00 PM)100% (Sep 13, 7:00 AM)30.28 "Hg (Sep 13, 7:00 AM)
Low52 °F (Sep 4, 7:00 AM)49% (Sep 6, 5:00 PM)29.89 "Hg (Sep 7, 5:00 PM)
Average63 °F80%30.06 "Hg
* Reported Sep 2 7:00 PM — Sep 17 7:00 PM, Zielona Góra, Weather by CustomWeather, © 2014

Note: Actual official high and low records may vary slightly from our data, if they occured in-between our weather recording intervals... More about our weather records

Advertising

Zielona Góra weather history for previous 24 hours

 ConditionsComfort  
Time TempWeatherWind HumidityBarometerVisibility
7:00 PM
Sep 17
66 °FSunny.2 mph60%30.05 "Hg16 mi
6:00 PM69 °FSunny.2 mph57%30.04 "Hg16 mi
5:00 PM71 °FSunny.3 mph59%30.04 "Hg12 mi
4:00 PM71 °FSunny.3 mph61%30.05 "Hg12 mi
3:00 PM71 °FSunny.3 mph62%30.06 "Hg9 mi
2:00 PM69 °FSunny.2 mph64%30.07 "Hg9 mi
1:00 PM68 °FSunny.3 mph70%30.08 "Hg6 mi
12:00 PM65 °FSunny.2 mph73%30.09 "Hg6 mi
11:00 AM62 °FSunny.2 mph80%30.11 "Hg6 mi
10:00 AM60 °FSunny.2 mph82%30.11 "Hg6 mi
9:00 AM56 °FSunny.2 mph85%30.11 "Hg6 mi
8:00 AM54 °FPassing clouds.3 mph89%30.11 "Hg6 mi
7:00 AM54 °FPassing clouds.2 mph89%30.11 "Hg6 mi
6:00 AM54 °FClear.2 mph88%30.10 "Hg7 mi
5:00 AM55 °FClear.2 mph86%30.11 "Hg9 mi
4:00 AM56 °FClear.3 mph83%30.12 "Hg9 mi
3:00 AM56 °FClear.2 mph81%30.11 "Hg9 mi
2:00 AM58 °FClear.3 mph76%30.12 "Hg12 mi
1:00 AM59 °FClear.3 mph72%30.12 "Hg12 mi
12:00 AM60 °FClear.2 mph68%30.13 "Hg12 mi
11:00 PM
Sep 16
62 °FClear.2 mph67%30.13 "Hg12 mi
10:00 PM64 °FClear.2 mph62%30.12 "Hg12 mi
9:00 PM65 °FPassing clouds.2 mph63%30.12 "Hg12 mi
8:00 PM66 °FPassing clouds.2 mph63%30.11 "Hg12 mi
Weather by CustomWeather, © 2014

See weather overviewHow to use our weather pages